Starlink 5190

operational
NORAD ID: 54092 Int'l Des: 2022-136 Owner: SPXS Country: US Constellation: starlink
LEOCIRCULAR

About Starlink 5190

Description loading...

Live Position

Loading 3D Globe...

Upcoming Passes

Altitude History

Altitude vs Time

uPlot chart will show altitude changes over time

Two-Line Element Set

1 54092U 22136AT 25308.47086993 .00035031 00000-0 57923-3 0 9999
2 54092 53.1845 61.5952 0002884 303.3307 56.7427 15.51909421169696
Epoch: Nov 4, 2025 • Age: 7 hours

Current Status

Altitude 427.2 km
Velocity 7.66 km/s
Sub-Earth Point -51.72°S, 24.88°E
Launch Date Oct 20, 2022
Age 3 years
Type internet

Technical Details

Classification Payload
Mass 305.00 kg
Dry Mass 290.00 kg
Total Mass 305.00 kg
Length 0.20 m
Diameter 2.80 m
Span 9.00 m
Shape Box + pan
Manufacturer SPXS
Bus Type Starlink
Phase Status In Orbit
Owner/State SPXS/US

Large Constellations

Loading constellations...